| time (UTC) | temp C | wind direction | speed KPH | gust KPH | rain 1hr cm | rain 24hr cm | rain mn cm | humidity % | barometer mb |
| 20260505035304 | 19 | 220 | 0.0 | 0.0 | 0.00 | 0.00 | 0.00 | 82 | 1014.2 |
| 20260505033403 | 20 | 302 | 0.0 | 0.0 | 0.00 | 0.00 | 0.00 | 81 | 1014.2 |
| 20260505031302 | 20 | 233 | 0.0 | 0.0 | 0.00 | 0.00 | 0.00 | 80 | 1013.9 |
| 20260505025304 | 20 | 253 | 3.2 | 4.8 | 0.00 | 0.00 | 0.00 | 81 | 1013.9 |
| 20260505023434 | 20 | 196 | 0.0 | 0.0 | 0.00 | 0.00 | 0.00 | 80 | 1013.9 |
| 20260505021303 | 20 | 243 | 0.0 | 0.0 | 0.00 | 0.00 | 0.00 | 81 | 1013.5 |
| 20260505015303 | 20 | 251 | 0.0 | 0.0 | 0.00 | 0.00 | 0.00 | 79 | 1013.2 |
| 20260505013403 | 20 | 246 | 0.0 | 0.0 | 0.00 | 0.00 | 0.00 | 79 | 1013.5 |
| 20260505011303 | 21 | 248 | 0.0 | 0.0 | 0.00 | 0.00 | 0.00 | 76 | 1013.2 |
| 20260505005304 | 21 | 232 | 0.0 | 0.0 | 0.00 | 0.00 | 0.00 | 74 | 1013.2 |
| 20260505003403 | 22 | 203 | 4.8 | 8.0 | 0.00 | 0.00 | 0.00 | 68 | 1013.2 |
| 20260505001304 | 23 | 202 | 4.8 | 8.0 | 0.00 | 0.00 | 0.00 | 66 | 1013.2 |
| 20260504235304 | 24 | 250 | 0.0 | 0.0 | 0.00 | 0.00 | 0.00 | 62 | 1013.5 |
| 20260504233403 | 25 | 261 | 3.2 | 4.8 | 0.00 | 0.00 | 0.00 | 58 | 1013.5 |
| 20260504231303 | 26 | 208 | 11.3 | 16.1 | 0.00 | 0.00 | 0.00 | 56 | 1013.9 |
| 20260504225304 | 26 | 232 | 0.0 | 0.0 | 0.00 | 0.00 | 0.00 | 54 | 1013.9 |
| 20260504223402 | 26 | 222 | 1.6 | 4.8 | 0.00 | 0.00 | 0.00 | 54 | 1014.2 |
| 20260504221303 | 27 | 162 | 4.8 | 8.0 | 0.00 | 0.00 | 0.00 | 56 | 1014.6 |
| 20260504215304 | 26 | 207 | 1.6 | 4.8 | 0.00 | 0.00 | 0.00 | 54 | 1014.6 |
| 20260504213404 | 27 | 12 | 0.0 | 0.0 | 0.00 | 0.00 | 0.00 | 51 | 1014.9 |
| 20260504211303 | 26 | 236 | 3.2 | 4.8 | 0.00 | 0.00 | 0.00 | 51 | 1015.2 |
| 20260504205304 | 27 | 264 | 1.6 | 4.8 | 0.00 | 0.00 | 0.00 | 52 | 1015.2 |
| 20260504203432 | 26 | 198 | 11.3 | 12.9 | 0.00 | 0.00 | 0.00 | 52 | 1015.9 |
| 20260504201333 | 26 | 202 | 8.0 | 12.9 | 0.00 | 0.00 | 0.00 | 51 | 1015.9 |
| 20260504195304 | 26 | 231 | 11.3 | 16.1 | 0.00 | 0.00 | 0.00 | 49 | 1016.3 |
| 20260504193403 | 26 | 229 | 3.2 | 4.8 | 0.00 | 0.00 | 0.00 | 47 | 1016.6 |
| 20260504191302 | 25 | 225 | 3.2 | 4.8 | 0.00 | 0.00 | 0.00 | 46 | 1016.9 |
| 20260504185304 | 25 | 218 | 11.3 | 16.1 | 0.00 | 0.00 | 0.00 | 46 | 1017.3 |
| 20260504183403 | 25 | 215 | 14.5 | 16.1 | 0.00 | 0.00 | 0.00 | 48 | 1017.6 |
| 20260504181303 | 25 | 198 | 4.8 | 8.0 | 0.00 | 0.00 | 0.00 | 47 | 1017.9 |
| 20260504175304 | 25 | 322 | 1.6 | 4.8 | 0.00 | 0.00 | 0.00 | 50 | 1017.9 |
| 20260504173403 | 24 | 191 | 9.7 | 16.1 | 0.00 | 0.00 | 0.00 | 53 | 1018.3 |
| 20260504171302 | 23 | 239 | 11.3 | 12.9 | 0.00 | 0.00 | 0.00 | 51 | 1018.6 |
| 20260504141302 | 18 | 180 | 4.8 | 8.0 | 0.00 | 0.00 | 0.00 | 76 | 1019.6 |
| 20260504080603 | 12 | 232 | 0.0 | 0.0 | 0.00 | 0.00 | 0.00 | 96 | 1019.3 |
| 20260504050603 | 13 | 295 | 0.0 | 0.0 | 0.00 | 0.00 | 0.00 | 96 | 1020.3 |
| 20260504044703 | 13 | 240 | 0.0 | 0.0 | 0.00 | 0.00 | 0.00 | 96 | 1020.7 |
| 20260504042703 | 13 | 250 | 0.0 | 0.0 | 0.00 | 0.00 | 0.00 | 96 | 1020.7 |
| 20260504040632 | 13 | 259 | 0.0 | 0.0 | 0.00 | 0.00 | 0.00 | 96 | 1020.7 |